FW4741 Weather Reports


time (UTC)temp
C
wind
direction
speed
KPH
gust
KPH
rain 1hr
cm
rain 24hr
cm
rain mn
cm
humidity
%
barometer
mb
20260904112604 13 77 3.2 9.7 0.00 0.00 0.00 85 1023.0
20260904111603 13 77 3.2 9.7 0.00 0.00 0.00 85 1022.9
20260904111104 13 77 3.2 9.7 0.00 0.00 0.00 85 1022.9
20260904110604 13 77 3.2 9.7 0.00 0.00 0.00 84 1022.9
20260904105604 14 77 3.2 9.7 0.00 0.00 0.00 82 1022.9
20260904105104 14 77 3.2 9.7 0.00 0.00 0.00 82 1022.9
20260904104604 14 77 3.2 9.7 0.00 0.00 0.00 82 1022.9
20260904104104 14 77 3.2 9.7 0.00 0.00 0.00 81 1022.9
20260904103604 14 77 3.2 9.7 0.00 0.00 0.00 81 1022.9
20260904103104 14 77 3.2 9.7 0.00 0.00 0.00 81 1022.9
20260904102603 14 77 3.2 9.7 0.00 0.00 0.00 81 1022.9
20260904102103 13 77 3.2 9.7 0.00 0.00 0.00 83 1022.9
20260904101604 13 77 3.2 9.7 0.00 0.00 0.00 83 1022.9
20260904100604 13 77 3.2 9.7 0.00 0.00 0.00 84 1023.0
20260904095604 13 77 3.2 9.7 0.00 0.00 0.00 84 1022.9
20260904095103 13 77 3.2 9.7 0.00 0.00 0.00 85 1022.9
20260904094604 13 77 3.2 9.7 0.00 0.00 0.00 85 1022.9
20260904094103 13 77 3.2 9.7 0.00 0.00 0.00 85 1022.9
20260904093604 14 77 3.2 9.7 0.00 0.00 0.00 85 1022.9
20260904092603 15 77 3.2 9.7 0.00 0.00 0.00 83 1022.9
20260904092103 15 77 3.2 9.7 0.00 0.00 0.00 80 1022.9
20260904091604 15 77 3.2 9.7 0.00 0.00 0.00 79 1022.9
20260904091104 15 77 3.2 9.7 0.00 0.00 0.00 79 1022.8
20260904090604 15 77 3.2 9.7 0.00 0.00 0.00 79 1022.8
20260904085604 15 77 3.2 9.7 0.00 0.00 0.00 80 1022.8
20260904085104 15 77 3.2 9.7 0.00 0.00 0.00 81 1022.8
20260904084604 15 77 3.2 9.7 0.00 0.00 0.00 83 1022.8
20260904084104 15 77 3.2 9.7 0.00 0.00 0.00 83 1022.8
20260904082603 15 77 3.2 9.7 0.00 0.00 0.00 82 1022.9
20260904082104 15 77 3.2 9.7 0.00 0.00 0.00 82 1022.9
20260904081604 15 77 3.2 9.7 0.00 0.00 0.00 82 1022.9
20260904081104 15 77 3.2 9.7 0.00 0.00 0.00 82 1022.9
20260904080604 15 77 3.2 9.7 0.00 0.00 0.00 82 1023.0
20260904074603 15 77 3.2 9.7 0.00 0.00 0.00 81 1022.9
20260904074104 15 77 3.2 9.7 0.00 0.00 0.00 80 1022.8
20260904073604 15 77 3.2 9.7 0.00 0.00 0.00 81 1022.8
20260904072603 15 77 3.2 9.7 0.00 0.00 0.00 81 1022.8
20260904072104 16 77 3.2 9.7 0.00 0.00 0.00 80 1022.8
20260904071103 16 77 3.2 9.7 0.00 0.00 0.00 78 1022.7
20260904070603 16 77 3.2 9.7 0.00 0.00 0.00 77 1022.8
20260904065603 17 77 3.2 9.7 0.00 0.00 0.00 75 1022.8
20260904064604 17 77 3.2 9.7 0.00 0.00 0.00 74 1022.8
20260904064105 17 77 3.2 9.7 0.00 0.00 0.00 74 1022.9
20260904063604 17 77 3.2 9.7 0.00 0.00 0.00 74 1022.9
20260904063104 17 77 3.2 9.7 0.00 0.00 0.00 73 1023.0
20260904062604 17 77 3.2 9.7 0.00 0.00 0.00 73 1023.0
20260904062103 17 77 3.2 9.7 0.00 0.00 0.00 73 1022.9
20260904061604 17 77 3.2 9.7 0.00 0.00 0.00 73 1022.8
20260904061104 17 77 3.2 9.7 0.00 0.00 0.00 74 1022.9
20260904060604 17 77 3.2 9.7 0.00 0.00 0.00 74 1022.8
20260904060104 17 77 3.2 9.7 0.00 0.00 0.00 75 1022.8
20260904055604 17 77 3.2 9.7 0.00 0.00 0.00 75 1022.8
20260904055104 17 77 3.2 9.7 0.00 0.00 0.00 73 1022.8
20260904054604 17 77 3.2 9.7 0.00 0.00 0.00 73 1022.8
20260904053604 17 77 3.2 9.7 0.00 0.00 0.00 73 1022.8
20260904053103 17 77 3.2 9.7 0.00 0.00 0.00 74 1022.9
20260904052603 17 77 3.2 9.7 0.00 0.00 0.00 74 1022.9
20260904052103 17 77 3.2 9.7 0.00 0.00 0.00 74 1023.0
20260904051603 17 77 3.2 9.7 0.00 0.00 0.00 74 1023.0
20260904051104 18 77 3.2 9.7 0.00 0.00 0.00 74 1023.0
20260904050604 18 77 3.2 9.7 0.00 0.00 0.00 74 1023.0
20260904050104 18 77 3.2 9.7 0.00 0.00 0.00 74 1023.1
20260904045104 18 77 3.2 9.7 0.00 0.00 0.00 73 1023.3
20260904044105 18 77 3.2 9.7 0.00 0.00 0.00 74 1023.4
20260904043604 18 77 3.2 9.7 0.00 0.00 0.00 74 1023.4
20260904043104 18 77 3.2 9.7 0.00 0.00 0.00 74 1023.5
20260904042604 18 77 3.2 9.7 0.00 0.00 0.00 75 1023.5
20260904042104 18 77 3.2 9.7 0.00 0.00 0.00 76 1023.6
20260904041603 18 77 3.2 9.7 0.00 0.00 0.00 77 1023.7
20260904041104 18 77 3.2 9.7 0.00 0.00 0.00 77 1023.7
20260904040604 18 77 3.2 9.7 0.00 0.00 0.00 78 1023.8
20260904040103 17 77 3.2 9.7 0.00 0.00 0.00 77 1023.9
20260904035604 17 77 3.2 9.7 0.00 0.00 0.00 78 1023.9
20260904035104 17 77 3.2 9.7 0.00 0.00 0.00 78 1024.0
20260904034604 17 77 3.2 9.7 0.00 0.00 0.00 78 1024.0
20260904034104 18 77 3.2 9.7 0.00 0.00 0.00 78 1024.0
20260904033104 17 77 3.2 9.7 0.00 0.00 0.00 77 1023.9
20260904032604 17 77 3.2 9.7 0.00 0.00 0.00 77 1024.0
20260904032103 17 77 3.2 9.7 0.00 0.00 0.00 77 1023.9
20260904031603 18 77 3.2 9.7 0.00 0.00 0.00 76 1023.9
20260904031104 18 77 3.2 9.7 0.00 0.00 0.00 76 1023.8
20260904030604 17 77 3.2 9.7 0.00 0.00 0.00 76 1023.8
20260904030104 17 77 3.2 9.7 0.00 0.00 0.00 77 1023.7
20260904025604 18 77 3.2 9.7 0.00 0.00 0.00 76 1023.5
20260904025104 18 77 3.2 9.7 0.00 0.00 0.00 75 1023.4
20260904024604 18 77 3.2 9.7 0.00 0.00 0.00 74 1023.4
20260904023604 18 77 3.2 9.7 0.00 0.00 0.00 73 1023.4
20260904023104 18 77 3.2 9.7 0.00 0.00 0.00 73 1023.3
20260904022604 18 77 3.2 9.7 0.00 0.00 0.00 73 1023.3
20260904022104 18 77 3.2 9.7 0.00 0.00 0.00 72 1023.2
20260904021604 18 77 3.2 9.7 0.00 0.00 0.00 73 1023.2
20260904021104 18 77 3.2 9.7 0.00 0.00 0.00 74 1023.1
20260904020105 18 77 3.2 9.7 0.00 0.00 0.00 75 1022.9
20260904015604 18 77 3.2 9.7 0.00 0.00 0.00 74 1022.9
20260904015103 19 77 3.2 9.7 0.00 0.00 0.00 71 1022.9
20260904014603 19 77 3.2 9.7 0.00 0.00 0.00 70 1022.8
20260904014104 19 77 3.2 9.7 0.00 0.00 0.00 70 1022.8
20260904013604 19 77 3.2 9.7 0.00 0.00 0.00 71 1022.8
20260904012104 19 77 3.2 9.7 0.00 0.00 0.00 71 1022.8
20260904011604 20 77 3.2 9.7 0.00 0.00 0.00 69 1022.8
20260904011104 20 77 3.2 9.7 0.00 0.00 0.00 67 1022.8
20260904010604 20 77 3.2 9.7 0.00 0.00 0.00 67 1022.8
20260904010104 20 77 3.2 9.7 0.00 0.00 0.00 66 1022.8
20260904005603 20 77 3.2 9.7 0.00 0.00 0.00 69 1022.7
20260904005104 20 77 3.2 9.7 0.00 0.00 0.00 70 1022.6
20260904004603 20 77 3.2 9.7 0.00 0.00 0.00 70 1022.5
20260904004104 20 77 3.2 9.7 0.00 0.00 0.00 68 1022.4
20260904003104 20 77 3.2 9.7 0.00 0.00 0.00 69 1022.3
20260904002604 20 77 3.2 9.7 0.00 0.00 0.00 69 1022.3
20260904002104 20 77 3.2 9.7 0.00 0.00 0.00 70 1022.3
20260904001604 21 77 3.2 9.7 0.00 0.00 0.00 71 1022.2
20260904000603 21 77 3.2 9.7 0.00 0.00 0.00 70 1022.1
20260903235103 21 77 3.2 9.7 0.00 0.00 0.00 69 1022.0
20260903234604 21 77 3.2 9.7 0.00 0.00 0.00 68 1022.0
20260903234103 21 77 3.2 9.7 0.00 0.00 0.00 67 1021.9
20260903233104 21 77 3.2 9.7 0.00 0.00 0.00 69 1021.8
20260903232604 21 77 3.2 9.7 0.00 0.00 0.00 70 1021.8
20260903232104 21 77 3.2 9.7 0.00 0.00 0.00 73 1021.8
20260903231604 21 77 3.2 9.7 0.00 0.00 0.00 73 1021.8
20260903231103 21 77 3.2 9.7 0.00 0.00 0.00 71 1021.8
20260903230604 21 77 3.2 9.7 0.00 0.00 0.00 71 1021.9
20260903230103 21 77 3.2 9.7 0.00 0.00 0.00 70 1021.9
20260903225604 22 77 3.2 9.7 0.00 0.00 0.00 73 1021.9
20260903224603 22 77 3.2 9.7 0.00 0.00 0.00 64 1022.0
20260903223604 22 77 3.2 9.7 0.00 0.00 0.00 67 1022.2
20260903223103 22 77 3.2 9.7 0.00 0.00 0.00 67 1022.2
20260903222604 22 77 3.2 9.7 0.00 0.00 0.00 68 1022.2
20260903221103 22 77 3.2 9.7 0.00 0.00 0.00 68 1022.1
20260903220604 22 77 3.2 9.7 0.00 0.00 0.00 69 1022.1
20260903220104 22 77 3.2 9.7 0.00 0.00 0.00 68 1021.9
20260903215604 22 77 3.2 9.7 0.00 0.00 0.00 69 1021.8
20260903214603 23 77 3.2 9.7 0.00 0.00 0.00 63 1021.7
20260903214104 23 77 3.2 9.7 0.00 0.00 0.00 64 1021.5
20260903213604 23 77 3.2 9.7 0.00 0.00 0.00 65 1021.5
20260903213104 23 77 3.2 9.7 0.00 0.00 0.00 66 1021.6
20260903212603 23 77 3.2 9.7 0.00 0.00 0.00 65 1021.5
20260903212104 23 77 3.2 9.7 0.00 0.00 0.00 62 1021.6
20260903211604 23 77 3.2 9.7 0.00 0.00 0.00 63 1021.7
20260903211103 24 77 3.2 9.7 0.00 0.00 0.00 62 1021.8
20260903210604 24 77 3.2 9.7 0.00 0.00 0.00 61 1021.8
20260903210104 25 77 3.2 9.7 0.00 0.00 0.00 59 1021.6
20260903205604 25 77 3.2 9.7 0.00 0.00 0.00 56 1021.6
20260903204604 25 77 3.2 9.7 0.00 0.00 0.00 54 1022.1
20260903204104 25 77 3.2 9.7 0.00 0.00 0.00 54 1022.1
20260903203104 25 77 3.2 9.7 0.00 0.00 0.00 57 1022.1
20260903202603 25 77 3.2 9.7 0.00 0.00 0.00 57 1022.1
20260903202104 25 77 3.2 9.7 0.00 0.00 0.00 57 1022.2
20260903201604 25 77 3.2 9.7 0.00 0.00 0.00 57 1022.2
20260903201104 25 77 3.2 9.7 0.00 0.00 0.00 57 1022.3
20260903200104 25 77 3.2 9.7 0.00 0.00 0.00 57 1022.4
20260903195604 24 77 3.2 9.7 0.00 0.00 0.00 57 1022.5
20260903195104 23 77 3.2 9.7 0.00 0.00 0.00 59 1022.6
20260903194604 23 77 3.2 9.7 0.00 0.00 0.00 60 1022.6
20260903194104 23 77 3.2 9.7 0.00 0.00 0.00 59 1022.7
20260903193604 23 77 3.2 9.7 0.00 0.00 0.00 59 1022.7
20260903192605 23 77 3.2 9.7 0.00 0.00 0.00 60 1022.8
20260903192104 23 77 3.2 9.7 0.00 0.00 0.00 61 1022.9
20260903191604 23 77 3.2 9.7 0.00 0.00 0.00 63 1023.0
20260903191104 23 77 3.2 9.7 0.00 0.00 0.00 60 1023.0
20260903190603 23 77 3.2 9.7 0.00 0.00 0.00 62 1023.1
20260903190104 23 77 3.2 9.7 0.00 0.00 0.00 63 1023.2
20260903185104 22 77 3.2 9.7 0.00 0.00 0.00 64 1023.3
20260903184604 22 77 3.2 9.7 0.00 0.00 0.00 64 1023.3
20260903183603 22 77 3.2 9.7 0.00 0.00 0.00 65 1023.4
20260903182604 22 77 3.2 9.7 0.00 0.00 0.00 64 1023.5
20260903182103 22 77 3.2 9.7 0.00 0.00 0.00 65 1023.6
20260903181604 22 77 3.2 9.7 0.00 0.00 0.00 65 1023.6
20260903181104 22 77 3.2 9.7 0.00 0.00 0.00 65 1023.7
20260903180104 22 77 3.2 9.7 0.00 0.00 0.00 65 1023.8
20260903175604 22 77 3.2 9.7 0.00 0.00 0.00 64 1023.8
20260903175103 23 77 3.2 9.7 0.00 0.00 0.00 63 1023.9
20260903174604 23 77 3.2 9.7 0.00 0.00 0.00 60 1023.9
20260903173103 23 77 3.2 9.7 0.00 0.00 0.00 58 1023.9
20260903172603 23 77 3.2 9.7 0.00 0.00 0.00 60 1023.9
20260903172104 23 77 3.2 9.7 0.00 0.00 0.00 58 1024.0
20260903171604 23 77 3.2 9.7 0.00 0.00 0.00 57 1024.1
20260903171104 23 77 3.2 9.7 0.00 0.00 0.00 54 1024.1
20260903170604 24 77 3.2 9.7 0.00 0.00 0.00 54 1024.2
20260903170104 24 77 3.2 9.7 0.00 0.00 0.00 53 1024.2
20260903165604 24 77 3.2 9.7 0.00 0.00 0.00 53 1024.1
20260903164604 23 77 3.2 9.7 0.00 0.00 0.00 56 1024.1
20260903164104 23 77 3.2 9.7 0.00 0.00 0.00 57 1024.1
20260903163104 23 77 3.2 9.7 0.00 0.00 0.00 57 1024.1
20260903162104 23 77 3.2 9.7 0.00 0.00 0.00 62 1024.1
20260903161603 22 77 3.2 9.7 0.00 0.00 0.00 62 1024.1
20260903161103 22 77 3.2 9.7 0.00 0.00 0.00 65 1024.2
20260903160604 21 77 3.2 9.7 0.00 0.00 0.00 65 1024.2
20260903160103 21 77 3.2 9.7 0.00 0.00 0.00 66 1024.2
20260903155604 21 77 3.2 9.7 0.00 0.00 0.00 67 1024.2
20260903155104 21 77 3.2 9.7 0.00 0.00 0.00 68 1024.2
20260903154604 20 77 3.2 9.7 0.00 0.00 0.00 68 1024.2
20260903154104 20 77 3.2 9.7 0.00 0.00 0.00 69 1024.2
20260903153604 20 77 3.2 9.7 0.00 0.00 0.00 69 1024.2
20260903153104 20 77 3.2 9.7 0.00 0.00 0.00 71 1024.1
20260903152604 20 77 3.2 9.7 0.00 0.00 0.00 71 1024.1
20260903152104 19 77 3.2 9.7 0.00 0.00 0.00 71 1024.1
20260903151604 19 77 3.2 9.7 0.00 0.00 0.00 73 1024.1
20260903151105 18 77 3.2 9.7 0.00 0.00 0.00 73 1024.1
20260903150603 18 77 3.2 9.7 0.00 0.00 0.00 74 1024.1
20260903150104 18 77 3.2 9.7 0.00 0.00 0.00 75 1024.2
20260903145603 18 77 3.2 9.7 0.00 0.00 0.00 76 1024.3
20260903144604 18 77 3.2 9.7 0.00 0.00 0.00 77 1024.3
20260903144104 17 77 3.2 9.7 0.00 0.00 0.00 77 1024.3
20260903143603 17 77 3.2 9.7 0.00 0.00 0.00 78 1024.3
20260903143104 17 77 3.2 9.7 0.00 0.00 0.00 78 1024.4
20260903142604 17 77 3.2 9.7 0.00 0.00 0.00 78 1024.4
20260903142104 17 77 3.2 9.7 0.00 0.00 0.00 79 1024.4
20260903141604 17 77 3.2 9.7 0.00 0.00 0.00 79 1024.4
20260903140603 17 77 3.2 9.7 0.00 0.00 0.00 79 1024.4
20260903140104 17 77 3.2 9.7 0.00 0.00 0.00 79 1024.3
20260903135604 17 77 3.2 9.7 0.00 0.00 0.00 80 1024.3
20260903135103 17 77 3.2 9.7 0.00 0.00 0.00 80 1024.3
20260903134104 16 77 3.2 9.7 0.00 0.00 0.00 81 1024.3
20260903133604 16 77 3.2 9.7 0.00 0.00 0.00 81 1024.3
20260903133104 16 77 3.2 9.7 0.00 0.00 0.00 82 1024.3
20260903132604 16 77 3.2 9.7 0.00 0.00 0.00 82 1024.3
20260903132104 16 77 3.2 9.7 0.00 0.00 0.00 83 1024.3
20260903131604 16 77 3.2 9.7 0.00 0.00 0.00 82 1024.2
20260903131103 16 77 3.2 9.7 0.00 0.00 0.00 82 1024.2
20260903130603 16 77 3.2 9.7 0.00 0.00 0.00 82 1024.2
20260903130103 16 77 3.2 9.7 0.00 0.00 0.00 82 1024.2
20260903125603 16 77 3.2 9.7 0.00 0.00 0.00 82 1024.2
20260903125103 16 77 3.2 9.7 0.00 0.00 0.00 82 1024.1
20260903124604 16 77 3.2 9.7 0.00 0.00 0.00 82 1024.1
20260903124104 16 77 3.2 9.7 0.00 0.00 0.00 82 1024.0
20260903123604 16 77 3.2 9.7 0.00 0.00 0.00 81 1023.9
20260903123104 16 77 3.2 9.7 0.00 0.00 0.00 82 1023.9
20260903122603 16 77 3.2 9.7 0.00 0.00 0.00 82 1023.9
20260903122104 16 77 3.2 9.7 0.00 0.00 0.00 83 1023.8
20260903121604 16 77 3.2 9.7 0.00 0.00 0.00 83 1023.8
20260903121104 16 77 3.2 9.7 0.00 0.00 0.00 83 1023.8
20260903120604 16 77 3.2 9.7 0.00 0.00 0.00 83 1023.8
20260903120103 16 77 3.2 9.7 0.00 0.00 0.00 83 1023.8
20260903115604 16 77 3.2 9.7 0.00 0.00 0.00 83 1023.8
20260903115104 16 77 3.2 9.7 0.00 0.00 0.00 82 1023.7
20260903114604 16 77 3.2 9.7 0.00 0.00 0.00 81 1023.7
20260903114104 16 77 3.2 9.7 0.00 0.00 0.00 82 1023.7